Location: Grand Rapids
(42.9630°N, 85.6680°W)
Time: 14:58:17
(UTC-04:00)

BlueWalker 3 - Visible Passes

Search period start: 01 October 2023 00:00
Search period end: 11 October 2023 00:00
Orbit: 491 x 508 km, 53.2° (Epoch: 01 October)

Date Brightness Start Highest point End Pass type
(mag) Time Alt. Az. Time Alt. Az. Time Alt. Az.
01 Oct 3.3 05:32:38 31° N 05:33:27 35° NNE 05:37:01 10° E visible
01 Oct 2.4 07:08:18 10° WNW 07:11:58 43° SW 07:15:39 10° SSE visible
02 Oct 3.5 05:12:25 33° NE 05:12:25 33° NE 05:15:24 10° E visible
02 Oct 2.3 06:47:04 12° WNW 06:50:21 43° SW 06:54:02 10° SSE visible
03 Oct 4.5 04:52:21 20° E 04:52:21 20° E 04:53:47 10° E visible
03 Oct 2.3 06:27:01 26° W 06:28:43 43° SW 06:32:23 10° SSE visible
04 Oct 2.3 06:07:07 42° SW 06:07:07 42° SW 06:10:44 10° SSE visible
05 Oct 3.6 05:47:21 23° SSE 05:47:21 23° SSE 05:49:05 10° SSE visible
07 Oct 3.9 20:24:07 10° SSE 20:25:23 14° SE 20:25:23 14° SE visible
08 Oct 3.7 20:02:24 10° SSE 20:04:32 15° SE 20:05:23 14° ESE visible
08 Oct 4.1 21:38:42 10° WSW 21:40:03 21° WSW 21:40:03 21° WSW visible
09 Oct 3.8 19:40:39 10° SSE 19:42:48 15° SE 19:44:57 10° E visible
09 Oct 2.6 21:16:58 10° WSW 21:19:51 50° WSW 21:19:51 50° WSW visible
10 Oct 1.9 20:55:14 10° WSW 20:59:01 80° NW 20:59:29 66° NNE visible
